Location: Audinghen
(50.8518°N, 1.6129°E)
Time: 05:22:57
(UTC+00:00)

In-Cosmos 22 - Pass Details

Date: 07 August 2020
Orbit: 784 x 877 km, 81.2° (Epoch: 23 September)

Event Time Altitude Azimuth Distance (km) Brightness Sun altitude
Rises 01:09:00 0° 346° (NNW) 3,449 8.3 -21.1°
Reaches altitude 10° 01:11:28 10° 346° (NNW) 2,496 7.4 -21.0°
Maximum altitude 01:17:08 82° 260° (W) 852 4.1 -20.7°
Enters shadow 01:19:18 39° 177° (S) 1,236 4.6 -20.6°
